User: anonymous   Login
Location: Unspecified
(0.0000°N, 0.0000°E)
Time: 15:24:22
(UTC+00:00)
Language:

NUSAT 2 - Orbit

View from above orbital plane
View from above orbital plane
View from above satellite
View from above satellite

Ground track
Ground track

The orbit data is extracted from the following two-line orbital elements,

1 41558U 16033C   18345.53328259  .00001422  00000-0  53779-4 0  9998
2 41558  97.4316  69.5617 0011613 245.8177 114.1849 15.28600894141237
Epoch (UTC): 11 December 2018 12:47:55
Eccentricity: 0.0011613
inclination: 97.4316°
perigee height: 472 km
apogee height: 488 km
right ascension of ascending node: 69.5617°
argument of perigee: 245.8177°
revolutions per day: 15.28600894
mean anomaly at epoch: 114.1849°
orbit number at epoch: 14123

The dashed part of the orbit path shows where the satellite is in the earth's shadow,  

DLR